Flag for Australia Weather past 2 weeks in Port Hedland, Western Australia, Australia

Now
59 °F

Clear.


Feels Like: 58 °F
Forecast: 65 / 80 °F
Wind: 7 mph from South

Location: Port Hedland Pardoo

Current Time: Jul 6, 2015 at 12:02:31 AM

Latest Report: Jul 5, 2015 at 11:30 PM


Visibility: N/A

Pressure: 30.04 "Hg

Humidity: 63%

Dew point: 46 °F

Location of Port HedlandLocation

Historic Weather in Port Hedland — Graph

°F

Port Hedland temperature yesterday

Maximum temperature yesterday: 82 °F (at 11:30 AM)
Minimum temperature yesterday: 55 °F (at 3:30 AM)
Average temperature yesterday: 67 °F

Past Weeks' High & Low Weather Summary

 TemperatureHumidityPressure
High88 °F (Jun 21, 11:30 AM)100% (Jun 20, 11:00 PM)30.21 "Hg (Jun 20, 11:00 PM)
Low50 °F (Jun 30, 6:00 AM)7% (Jul 4, 2:00 PM)29.95 "Hg (Jun 21, 3:00 PM)
Average69 °F42%30.10 "Hg
* Reported Jun 20 11:00 PM — Jul 5 11:00 PM, Port Hedland, Weather by CustomWeather, © 2015

Note: Actual official high and low records may vary slightly from our data, if they occured in-between our weather recording intervals... More about our weather records

Advertising

Port Hedland weather history for previous 24 hours

 ConditionsComfort  
Time TempWeatherWind HumidityBarometerVisibility
11:00 PM
Sun, Jul 5
57 °FClear.7 mph67%30.04 "HgN/A
10:30 PM57 °FClear.6 mph67%30.04 "HgN/A
10:00 PM59 °FClear.7 mph68%30.04 "HgN/A
9:30 PM59 °FClear.8 mph72%30.04 "HgN/A
9:00 PM59 °FClear.7 mph72%30.04 "HgN/A
8:30 PM61 °FClear.5 mph63%30.04 "HgN/A
8:00 PM63 °FClear.3 mph64%30.04 "HgN/A
7:30 PM64 °FClear.5 mph64%30.04 "HgN/A
7:00 PM64 °FClear.6 mph60%30.01 "HgN/A
6:30 PM64 °FClear.6 mph60%30.01 "HgN/A
6:00 PM68 °FClear.6 mph49%30.01 "HgN/A
5:30 PM72 °FClear.6 mph41%30.01 "HgN/A
5:00 PM73 °FClear.9 mph29%30.01 "HgN/A
4:30 PM75 °FSunny.9 mph22%30.01 "HgN/A
4:00 PM77 °FSunny.9 mph21%30.01 "HgN/A
3:30 PM79 °FSunny.10 mph17%30.01 "HgN/A
3:00 PM79 °FSunny.10 mph18%30.01 "HgN/A
2:30 PM81 °FSunny.10 mph16%30.01 "HgN/A
2:00 PM81 °FSunny.12 mph16%30.01 "HgN/A
1:30 PM82 °FSunny.12 mph11%30.01 "HgN/A
1:00 PM81 °FSunny.13 mph11%30.04 "HgN/A
12:30 PM82 °FSunny.13 mph10%30.04 "HgN/A
11:30 AM82 °FSunny.15 mph9%30.07 "HgN/A
11:00 AM81 °FSunny.15 mph12%30.09 "HgN/A
10:30 AM81 °FSunny.14 mph10%30.09 "HgN/A
10:00 AM79 °FSunny.14 mph12%30.09 "HgN/A
9:30 AM75 °FSunny.14 mph16%30.12 "HgN/A
9:00 AM73 °FSunny.15 mph19%30.12 "HgN/A
8:30 AM72 °FSunny.10 mph22%30.09 "HgN/A
8:00 AM66 °FSunny.9 mph30%30.09 "HgN/A
7:30 AM61 °FSunny.9 mph39%30.09 "HgN/A
7:00 AM57 °FSunny.10 mph41%30.09 "HgN/A
6:30 AM57 °FSunny.9 mph41%30.07 "HgN/A
6:00 AM55 °FSunny.9 mph47%30.07 "HgN/A
5:30 AM55 °FClear.9 mph47%30.07 "HgN/A
5:00 AM55 °FClear.9 mph47%30.04 "HgN/A
4:30 AM59 °FClear.9 mph36%30.04 "HgN/A
4:00 AM57 °FClear.8 mph41%30.04 "HgN/A
3:30 AM55 °FClear.10 mph47%30.04 "HgN/A
3:00 AM57 °FClear.10 mph44%30.04 "HgN/A
2:30 AM57 °FClear.10 mph44%30.04 "HgN/A
2:00 AM57 °FClear.10 mph44%30.04 "HgN/A
1:30 AM57 °FClear.10 mph44%30.04 "HgN/A
1:00 AM57 °FClear.8 mph44%30.07 "HgN/A
12:30 AM57 °FClear.7 mph41%30.04 "HgN/A
12:00 AM57 °FClear.5 mph44%30.04 "HgN/A
Weather by CustomWeather, © 2015

See weather overviewHow to use our weather pages